N3OZD-10 Weather Reports


time (UTC)temp
C
wind
direction
speed
KPH
gust
KPH
rain 1hr
cm
rain 24hr
cm
rain mn
cm
humidity
%
barometer
mb
20260510100715 10 109 0.0 0.0 0.03 0.94 0.13 96 1011.4
20260510100218 10 109 0.0 0.0 0.03 0.94 0.13 96 1011.5
20260510095715 10 109 0.0 0.0 0.03 0.94 0.13 96 1011.4
20260510095218 10 109 0.0 0.0 0.03 0.94 0.13 96 1011.4
20260510094715 10 109 0.0 0.0 0.03 0.94 0.13 96 1011.4
20260510094216 10 109 0.0 0.0 0.03 0.94 0.13 96 1011.3
20260510093719 10 109 0.0 0.0 0.03 0.94 0.13 96 1011.2
20260510093220 10 109 0.0 0.0 0.03 0.97 0.13 96 1011.3
20260510092749 11 109 0.0 0.0 0.03 0.97 0.13 96 1011.3
20260510092715 11 109 0.0 0.0 0.03 0.97 0.13 96 1011.3
20260510092216 11 109 0.0 0.0 0.03 0.97 0.13 96 1011.2
20260510091715 11 109 0.0 0.0 0.03 0.97 0.13 96 1011.2
20260510090716 11 109 0.0 0.0 0.00 0.94 0.10 96 1011.1
20260510090215 11 109 0.0 0.0 0.00 0.94 0.10 96 1011.2
20260510085715 11 109 0.0 0.0 0.00 0.94 0.10 96 1011.2
20260510085215 11 109 0.0 0.0 0.00 0.94 0.10 96 1011.3
20260510084715 11 109 0.0 0.0 0.00 0.94 0.10 96 1011.3
20260510084216 11 109 0.0 0.0 0.00 0.94 0.10 96 1011.2
20260510083715 11 109 0.0 0.0 0.00 0.94 0.10 96 1011.2
20260510083215 11 109 0.0 3.2 0.00 0.94 0.10 96 1011.4
20260510082715 11 45 0.0 6.4 0.00 0.94 0.10 96 1011.3
20260510082215 11 64 0.0 6.4 0.00 0.94 0.10 96 1011.3
20260510081716 11 88 0.0 8.0 0.00 0.94 0.10 96 1011.1
20260510081215 11 57 0.0 4.8 0.00 0.94 0.10 96 1010.9
20260510080715 10 102 4.8 6.4 0.00 0.94 0.10 96 1011.1
20260510080215 10 23 0.0 1.6 0.00 0.94 0.10 95 1010.7
20260510075715 10 12 0.0 0.0 0.00 0.94 0.10 95 1010.6
20260510075215 10 12 0.0 0.0 0.00 0.94 0.10 95 1010.6
20260510074715 11 12 0.0 0.0 0.00 0.94 0.10 95 1010.6
20260510074215 11 12 0.0 0.0 0.00 0.94 0.10 95 1010.6
20260510073715 10 12 0.0 0.0 0.03 0.94 0.10 95 1010.5
20260510073216 10 12 0.0 0.0 0.08 0.94 0.10 95 1010.5
20260510072715 10 12 0.0 0.0 0.08 0.94 0.10 95 1010.4
20260510072215 10 12 0.0 0.0 0.08 0.94 0.10 94 1010.4
20260510071715 11 12 0.0 0.0 0.08 0.94 0.10 95 1010.3
20260510071215 11 12 0.0 0.0 0.08 0.94 0.10 95 1010.2
20260510070715 11 12 0.0 0.0 0.08 0.94 0.10 95 1010.2
20260510070217 11 12 0.0 0.0 0.08 0.94 0.10 95 1010.2
20260510065717 11 12 0.0 0.0 0.08 0.94 0.10 94 1010.2
20260510064715 11 12 0.0 3.2 0.08 0.94 0.10 93 1010.0
20260510064216 11 164 0.0 0.0 0.08 0.94 0.10 93 1010.0
20260510063716 11 164 0.0 0.0 0.05 0.91 0.08 93 1010.0
20260510063216 11 164 0.0 0.0 0.00 0.86 0.03 92 1009.8
20260510062715 11 164 0.0 0.0 0.00 0.86 0.03 92 1009.9
20260510062216 11 164 0.0 0.0 0.00 0.86 0.03 92 1009.9
20260510061715 11 164 0.0 0.0 0.00 0.86 0.03 92 1009.9
20260510061215 11 164 0.0 0.0 0.00 0.86 0.03 92 1010.0
20260510060715 11 164 0.0 0.0 0.00 0.86 0.03 91 1010.0
20260510060215 11 164 0.0 0.0 0.00 0.86 0.03 91 1010.1
20260510055715 11 164 0.0 0.0 0.00 0.86 0.03 90 1010.2
20260510055219 12 164 0.0 0.0 0.00 0.86 0.03 90 1010.1
20260510054715 12 164 0.0 0.0 0.00 0.86 0.03 90 1010.1
20260510054215 12 164 0.0 0.0 0.00 0.86 0.03 90 1010.2
20260510053925 12 164 0.0 0.0 0.00 0.86 0.03 90 1010.2
20260510053715 12 164 0.0 0.0 0.00 0.86 0.03 90 1010.2
20260510053347 12 164 0.0 0.0 0.00 0.86 0.03 90 1010.2
20260510053215 12 164 0.0 0.0 0.00 0.86 0.03 90 1010.2
20260510052715 12 164 0.0 0.0 0.00 0.86 0.03 90 1010.2
20260510052218 12 164 0.0 0.0 0.00 0.86 0.03 89 1010.1
20260510051715 12 164 0.0 0.0 0.00 0.86 0.03 89 1010.2
20260510051215 12 164 0.0 0.0 0.00 0.86 0.03 88 1010.3
20260510050715 12 164 0.0 0.0 0.00 0.86 0.03 88 1010.3
20260510050221 12 164 0.0 0.0 0.03 0.86 0.03 88 1010.3
20260510045715 12 164 0.0 0.0 0.03 0.86 0.03 88 1010.4
20260510045215 12 164 0.0 0.0 0.03 0.86 0.03 87 1010.4
20260510044715 12 164 0.0 0.0 0.03 0.86 0.03 87 1010.3
20260510044216 12 164 0.0 0.0 0.03 0.86 0.03 87 1010.3
20260510043719 12 164 0.0 0.0 0.03 0.86 0.03 87 1010.4
20260510043215 13 164 0.0 0.0 0.03 0.86 0.03 87 1010.4
20260510042716 12 164 0.0 0.0 0.03 0.86 0.03 87 1010.4
20260510042218 13 164 0.0 0.0 0.03 0.86 0.03 87 1010.4
20260510041715 13 164 0.0 0.0 0.03 0.86 0.03 87 1010.3
20260510041215 13 164 0.0 0.0 0.03 0.86 0.03 87 1010.4
20260510040715 13 164 0.0 0.0 0.03 0.86 0.03 87 1010.4
20260510040220 13 164 0.0 0.0 0.00 0.84 0.00 87 1010.4
20260510035716 13 164 0.0 0.0 0.00 0.84 0.00 87 1010.4
20260510035217 13 164 0.0 0.0 0.00 0.84 0.00 87 1010.4
20260510034715 13 164 0.0 0.0 0.00 0.84 0.84 87 1010.4
20260510034215 12 164 0.0 0.0 0.00 0.84 0.84 87 1010.3
20260510033720 13 164 0.0 0.0 0.00 0.84 0.84 86 1010.4
20260510033220 13 164 0.0 0.0 0.00 0.84 0.84 86 1010.3
20260510032717 13 164 0.0 0.0 0.00 0.84 0.84 85 1010.3
20260510032218 13 164 0.0 0.0 0.00 0.84 0.84 85 1010.3
20260510031716 13 164 0.0 0.0 0.00 0.84 0.84 85 1010.3
20260510031216 13 164 0.0 0.0 0.00 0.84 0.84 85 1010.3
20260510030720 13 164 0.0 0.0 0.05 0.84 0.84 84 1010.3
20260510030217 13 164 0.0 0.0 0.05 0.84 0.84 83 1010.2
20260510025716 13 164 0.0 0.0 0.05 0.84 0.84 83 1010.2
20260510025219 13 164 0.0 0.0 0.05 0.84 0.84 83 1010.2
20260510024716 13 164 0.0 0.0 0.05 0.84 0.84 82 1010.1
20260510024216 14 164 0.0 0.0 0.05 0.84 0.84 82 1010.1
20260510023716 14 164 0.0 0.0 0.05 0.84 0.84 82 1010.0
20260510023217 14 164 0.0 0.0 0.05 0.84 0.84 81 1010.1
20260510022716 14 164 0.0 0.0 0.05 0.84 0.84 81 1010.1
20260510022216 14 164 0.0 0.0 0.05 0.84 0.84 80 1010.1
20260510021717 14 164 0.0 0.0 0.05 0.84 0.84 81 1010.1
20260510021216 15 164 0.0 0.0 0.05 0.84 0.84 80 1010.1
20260510020719 14 164 0.0 0.0 0.00 0.79 0.79 80 1010.1
20260510020216 15 164 0.0 0.0 0.00 0.79 0.79 80 1010.2
20260510015715 15 164 0.0 0.0 0.00 0.79 0.79 80 1010.1
20260510015216 15 164 0.0 0.0 0.00 0.79 0.79 79 1010.1
20260510014718 15 164 0.0 0.0 0.00 0.79 0.79 79 1010.0
20260510014216 15 164 0.0 0.0 0.00 0.79 0.79 79 1010.0
20260510013715 15 164 0.0 0.0 0.00 0.79 0.79 79 1009.9
20260510013217 15 164 0.0 0.0 0.00 0.79 0.79 78 1009.8
20260510012717 15 164 0.0 0.0 0.00 0.79 0.79 78 1009.7
20260510012216 15 164 0.0 0.0 0.00 0.79 0.79 78 1009.7
20260510011717 15 164 0.0 0.0 0.00 0.79 0.79 78 1009.6
20260510011216 15 164 0.0 0.0 0.00 0.79 0.79 78 1009.5
20260510010716 15 164 0.0 0.0 0.00 0.79 0.79 77 1009.5
20260510010216 15 164 0.0 0.0 0.00 0.79 0.79 76 1009.5
20260510005716 16 164 0.0 0.0 0.00 0.79 0.79 76 1009.5
20260510005219 16 164 0.0 0.0 0.00 0.79 0.79 75 1009.4
20260510004716 16 164 0.0 0.0 0.00 0.79 0.79 74 1009.4
20260510004216 16 164 0.0 0.0 0.00 0.79 0.79 74 1009.3
20260510003716 16 164 0.0 0.0 0.00 0.79 0.79 74 1009.3
20260510003216 16 164 0.0 0.0 0.00 0.79 0.79 73 1009.3
20260510002716 16 164 0.0 0.0 0.00 0.79 0.79 73 1009.2
20260510002216 16 164 0.0 0.0 0.00 0.79 0.79 72 1009.2
20260510001717 16 164 0.0 0.0 0.00 0.79 0.79 72 1009.2
20260510001216 16 164 0.0 0.0 0.00 0.79 0.79 71 1009.2
20260510000717 17 164 0.0 0.0 0.00 0.79 0.79 71 1009.2
20260510000216 16 164 0.0 0.0 0.00 0.79 0.79 70 1009.2
20260509235716 17 164 0.0 0.0 0.00 0.79 0.79 70 1009.1
20260509235216 17 164 0.0 0.0 0.00 0.79 0.79 69 1009.1
20260509234716 17 164 0.0 1.6 0.00 0.79 0.79 69 1009.0
20260509234216 17 164 1.6 3.2 0.00 0.79 0.79 69 1009.0
20260509233716 17 174 0.0 3.2 0.00 0.79 0.79 69 1009.0
20260509233216 17 177 0.0 4.8 0.00 0.84 0.79 68 1009.0
20260509232716 17 133 3.2 8.0 0.00 0.84 0.79 68 1009.0
20260509232216 17 140 0.0 4.8 0.00 0.84 0.79 68 1008.9
20260509231717 17 177 0.0 9.7 0.00 0.84 0.79 68 1008.9
20260509231216 18 165 1.6 9.7 0.00 0.84 0.79 66 1008.9
20260509230716 18 158 3.2 8.0 0.00 0.84 0.79 66 1008.8
20260509230219 18 191 1.6 8.0 0.00 0.84 0.79 66 1008.7
20260509225716 18 158 6.4 8.0 0.00 0.84 0.79 66 1008.6
20260509225216 18 172 1.6 8.0 0.00 0.84 0.79 65 1008.6
20260509224716 18 147 4.8 6.4 0.00 0.84 0.79 65 1008.7
20260509224217 18 191 0.0 0.0 0.00 0.84 0.79 65 1008.6
20260509223717 18 191 0.0 6.4 0.00 0.84 0.79 64 1008.7
20260509223217 18 174 3.2 8.0 0.00 0.91 0.79 64 1008.7
20260509222717 18 178 3.2 9.7 0.00 0.91 0.79 63 1008.7
20260509222216 18 195 0.0 6.4 0.00 0.91 0.79 63 1008.6
20260509221716 19 174 0.0 4.8 0.00 0.91 0.79 62 1008.8
20260509221216 18 142 3.2 6.4 0.00 0.91 0.79 62 1008.8
20260509220716 19 265 0.0 0.0 0.00 0.91 0.79 61 1008.8
20260509220217 19 168 0.0 4.8 0.00 0.91 0.79 62 1008.9
20260509215716 19 174 0.0 6.4 0.00 0.91 0.79 63 1008.9
20260509215216 18 180 0.0 4.8 0.00 0.91 0.79 64 1008.9
20260509214716 18 61 0.0 0.0 0.00 0.91 0.79 65 1008.9
20260509214217 18 61 0.0 6.4 0.00 0.91 0.79 64 1008.9
20260509213716 18 123 6.4 11.3 0.00 0.91 0.79 64 1008.9
20260509213216 18 129 1.6 11.3 0.00 0.94 0.79 64 1008.9
20260509212720 18 158 3.2 12.9 0.00 0.94 0.79 63 1008.9
20260509212216 18 127 4.8 9.7 0.03 0.94 0.79 63 1008.8
20260509211716 18 167 0.0 9.7 0.08 0.94 0.79 63 1008.8
20260509211216 18 147 8.0 12.9 0.08 0.94 0.79 61 1008.7
20260509210716 19 146 1.6 4.8 0.08 0.94 0.79 62 1008.7
20260509210217 19 63 1.6 8.0 0.08 0.94 0.79 60 1008.7
20260509205716 19 140 3.2 3.2 0.08 0.94 0.79 61 1008.6
20260509205216 19 91 1.6 6.4 0.08 0.94 0.79 60 1008.7
20260509204716 19 136 4.8 6.4 0.08 0.94 0.79 60 1008.7
20260509204216 19 151 0.0 0.0 0.08 0.94 0.79 59 1008.8
20260509203716 19 151 0.0 8.0 0.08 0.94 0.79 58 1008.7
20260509203216 19 153 8.0 12.9 0.08 0.94 0.79 58 1008.7
20260509202716 20 146 1.6 4.8 0.08 0.94 0.79 58 1008.7
20260509202216 20 132 3.2 3.2 0.00 0.86 0.71 56 1008.8
20260509201716 20 156 0.0 0.0 0.00 0.86 0.71 57 1008.8
20260509201216 20 156 0.0 1.6 0.00 0.86 0.71 58 1008.8
20260509200717 20 323 0.0 0.0 0.00 0.86 0.71 56 1009.0
20260509200216 20 323 0.0 3.2 0.00 0.86 0.71 57 1009.2
20260509195716 20 303 3.2 3.2 0.00 0.86 0.71 58 1009.2
20260509195216 19 217 0.0 0.0 0.00 0.86 0.71 56 1009.1
20260509194716 19 217 0.0 0.0 0.03 0.86 0.71 57 1009.2
20260509194218 19 217 0.0 0.0 0.03 0.86 0.71 55 1009.3
20260509193716 18 217 0.0 0.0 0.05 0.86 0.71 55 1009.2
20260509193216 19 217 0.0 1.6 0.05 0.91 0.71 56 1009.2
20260509192720 19 247 1.6 1.6 0.08 0.91 0.71 56 1009.4
20260509192216 18 56 0.0 0.0 0.08 0.91 0.71 57 1009.5
20260509191716 18 56 0.0 3.2 0.08 0.91 0.71 58 1009.4
20260509191216 18 180 0.0 3.2 0.08 0.91 0.71 56 1009.3
20260509190716 18 181 0.0 12.9 0.08 0.91 0.71 56 1009.4
20260509190219 18 160 6.4 12.9 0.08 0.91 0.71 57 1009.5
20260509185716 18 129 0.0 6.4 0.08 0.91 0.71 57 1009.7
20260509185218 18 151 3.2 11.3 0.05 0.89 0.69 58 1009.8
20260509184716 18 139 4.8 8.0 0.05 0.89 0.69 56 1009.7
20260509184217 18 143 4.8 8.0 0.03 0.86 0.66 58 1009.9
20260509183718 18 149 3.2 8.0 0.03 0.86 0.66 55 1009.9
20260509183216 17 135 8.0 8.0 0.03 0.91 0.66 57 1010.2
20260509182716 17 91 1.6 4.8 0.00 0.89 0.64 57 1010.3
20260509182218 17 91 0.0 0.0 0.03 0.89 0.64 58 1010.5
20260509181716 17 91 0.0 0.0 0.05 0.89 0.64 58 1010.5
20260509181216 17 91 0.0 0.0 0.10 0.89 0.64 60 1010.6
20260509180716 17 91 0.0 0.0 0.15 0.89 0.64 60 1010.6
20260509180219 17 91 0.0 4.8 0.18 0.89 0.64 60 1010.6
20260509175716 17 95 4.8 4.8 0.18 0.89 0.64 59 1010.6
20260509175216 17 92 1.6 3.2 0.18 0.89 0.64 57 1010.7
20260509174716 17 7 0.0 0.0 0.18 0.89 0.64 58 1010.6
20260509174216 17 7 0.0 0.0 0.18 0.89 0.64 57 1010.6
20260509173717 17 7 0.0 3.2 0.18 0.89 0.64 59 1010.6
20260509173218 17 94 0.0 3.2 0.18 0.89 0.64 59 1010.6
20260509172716 18 28 0.0 4.8 0.18 0.89 0.64 58 1010.7
20260509172216 17 309 0.0 4.8 0.15 0.86 0.61 58 1010.8
20260509171716 17 16 1.6 8.0 0.13 0.84 0.58 57 1010.8
20260509171216 18 11 1.6 4.8 0.05 0.76 0.51 57 1010.7
20260509170716 18 59 0.0 0.0 0.03 0.74 0.48 59 1010.8
20260509170216 18 348 0.0 4.8 0.00 0.71 0.46 57 1010.8
20260509165716 18 330 0.0 4.8 0.00 0.71 0.46 58 1010.8
20260509165216 18 45 0.0 8.0 0.00 0.71 0.46 56 1010.8
20260509164716 18 21 4.8 6.4 0.00 0.71 0.46 57 1010.8
20260509164216 18 8 1.6 6.4 0.00 0.71 0.46 59 1010.8
20260509163716 18 118 1.6 8.0 0.00 0.71 0.46 60 1010.9
20260509163216 17 312 4.8 4.8 0.03 0.74 0.46 62 1010.8
20260509162716 17 320 0.0 3.2 0.03 0.74 0.46 59 1010.9
20260509162216 17 279 0.0 4.8 0.05 0.74 0.46 58 1011.0
20260509161716 17 284 0.0 6.4 0.08 0.74 0.46 59 1011.1
20260509161216 17 344 0.0 3.2 0.08 0.74 0.46 59 1011.0
20260509160716 17 282 0.0 0.0 0.08 0.74 0.46 60 1011.1
20260509160216 17 282 0.0 1.6 0.13 0.74 0.46 59 1011.0
20260509155716 17 319 0.0 1.6 0.13 0.74 0.46 59 1010.9
20260509155216 17 284 0.0 4.8 0.13 0.74 0.46 58 1010.8
20260509154716 18 279 0.0 4.8 0.15 0.74 0.46 57 1010.8
20260509154216 17 298 1.6 4.8 0.15 0.74 0.46 57 1010.8
20260509153716 17 262 0.0 3.2 0.15 0.74 0.46 57 1011.0
20260509153216 17 324 1.6 4.8 0.18 0.71 0.43 58 1011.0
20260509152716 17 300 1.6 4.8 0.18 0.71 0.43 59 1011.1
20260509152218 17 298 0.0 0.0 0.15 0.69 0.41 58 1011.2
20260509151721 17 298 0.0 3.2 0.15 0.66 0.38 60 1011.3
20260509151216 17 244 0.0 0.0 0.15 0.66 0.38 63 1011.4
20260509150716 17 244 0.0 3.2 0.18 0.66 0.38 63 1011.5
20260509150216 16 270 0.0 0.0 0.13 0.61 0.33 62 1011.5
20260509145717 16 270 0.0 1.6 0.15 0.61 0.33 60 1011.6
20260509145216 16 298 0.0 0.0 0.15 0.61 0.33 64 1011.7
20260509144716 16 298 0.0 0.0 0.13 0.58 0.30 62 1011.7
20260509144216 16 298 0.0 0.0 0.13 0.58 0.30 63 1011.7
20260509143717 16 298 0.0 0.0 0.13 0.58 0.30 65 1011.6
20260509143216 16 298 0.0 0.0 0.08 0.53 0.25 61 1011.6
20260509142716 16 298 0.0 0.0 0.08 0.53 0.25 62 1011.6
20260509142217 16 298 0.0 3.2 0.08 0.53 0.25 62 1011.7
20260509141717 16 313 0.0 3.2 0.05 0.51 0.23 63 1011.7
20260509141225 16 316 1.6 4.8 0.05 0.51 0.23 64 1011.7
20260509140717 16 213 0.0 1.6 0.03 0.48 0.20 65 1011.7
20260509140221 16 237 0.0 4.8 0.03 0.48 0.20 64 1011.6
20260509135717 16 233 0.0 0.0 0.00 0.46 0.18 64 1011.6
20260509135217 16 233 0.0 0.0 0.03 0.46 0.18 64 1011.5
20260509134717 16 233 0.0 0.0 0.03 0.46 0.18 64 1011.6
20260509134217 15 233 0.0 3.2 0.03 0.46 0.18 62 1011.5
20260509133716 16 216 0.0 3.2 0.05 0.46 0.18 63 1011.5
20260509132717 16 309 3.2 3.2 0.05 0.46 0.18 63 1011.4
20260509132217 15 293 0.0 3.2 0.05 0.46 0.18 63 1011.5
20260509131717 15 251 0.0 3.2 0.05 0.46 0.18 64 1011.5
20260509131217 15 282 0.0 3.2 0.05 0.46 0.18 64 1011.4
20260509130717 15 261 0.0 8.0 0.05 0.46 0.18 65 1011.4
20260509130217 15 253 0.0 0.0 0.05 0.46 0.18 66 1011.5
20260509125718 15 253 0.0 3.2 0.05 0.46 0.18 65 1011.5
20260509125220 15 274 1.6 6.4 0.03 0.43 0.15 65 1011.6
20260509124717 15 255 0.0 0.0 0.03 0.43 0.15 67 1011.5
20260509124217 15 255 0.0 0.0 0.03 0.43 0.15 68 1011.5
20260509123717 15 255 0.0 0.0 0.00 0.41 0.13 69 1011.5
20260509123217 15 255 0.0 0.0 0.00 0.43 0.13 68 1011.4
20260509122717 15 255 0.0 0.0 0.00 0.43 0.13 69 1011.3
20260509122217 14 255 0.0 0.0 0.00 0.43 0.13 69 1011.3
20260509121717 14 255 0.0 0.0 0.00 0.43 0.13 70 1011.3
20260509121217 14 255 0.0 0.0 0.10 0.43 0.13 69 1011.4
20260509120717 14 255 0.0 0.0 0.10 0.43 0.13 68 1011.5
20260509120217 14 255 0.0 0.0 0.10 0.43 0.13 67 1011.4
20260509115717 14 255 0.0 0.0 0.10 0.43 0.13 68 1011.4
20260509115217 14 255 0.0 0.0 0.10 0.43 0.13 68 1011.4
20260509114717 14 255 0.0 0.0 0.10 0.43 0.13 68 1011.4
20260509114218 14 255 0.0 0.0 0.10 0.43 0.13 68 1011.3
20260509113716 13 255 0.0 0.0 0.10 0.43 0.13 69 1011.3
20260509113217 13 255 0.0 0.0 0.13 0.43 0.13 69 1011.3
20260509112716 13 255 0.0 0.0 0.13 0.43 0.13 69 1011.3
20260509112216 13 255 0.0 0.0 0.13 0.43 0.13 70 1011.2
20260509111718 13 255 0.0 0.0 0.13 0.43 0.13 69 1011.2
20260509111216 13 255 0.0 0.0 0.03 0.33 0.03 69 1011.2
20260509110717 13 255 0.0 0.0 0.03 0.33 0.03 69 1011.2
20260509110220 13 255 0.0 0.0 0.03 0.33 0.03 69 1011.1
20260509105717 13 255 0.0 0.0 0.03 0.33 0.03 69 1011.0
20260509105217 13 255 0.0 0.0 0.03 0.33 0.03 68 1010.9
20260509104716 13 255 0.0 0.0 0.03 0.33 0.03 68 1010.9
20260509104217 13 255 0.0 0.0 0.03 0.33 0.03 68 1010.9
20260509103721 13 255 0.0 0.0 0.03 0.33 0.03 68 1010.9
20260509103217 13 255 0.0 0.0 0.00 0.30 0.00 68 1010.9
20260509102718 13 255 0.0 0.0 0.00 0.30 0.00 67 1011.0
20260509102217 13 255 0.0 0.0 0.00 0.30 0.00 67 1010.9
20260509101717 13 255 0.0 0.0 0.00 0.30 0.00 68 1010.8
20260509101218 13 255 0.0 0.0 0.00 0.30 0.00 68 1010.7